STARLINK-11584, 63106

Orbit data source: Space-Track

STARLINK-11584, 63106 is a payload satellite owned by SpaceX/Seattle (US) in LEO that was launched on Thu, 27 Feb 2025 UTC via an FALCON 9 launch vehicle from the Air Force Eastern Test Range (AFETR). Payload-class satellites include a variety of spacecraft equipped with specific instruments for various scientific and technological missions. These include communications satellites like Starlink; space stations such as the ISS; scientific satellites like the Hubble; Earth observation satellites from companies like Planet Labs, Umbra, and HawkEye 360; GPS; miniature CubeSats for education and research; and military/defense satellites.

Loading next visibility...
Identifier
63106, 2025-039C
Orbit
LEO
Country
Flag of USUS
Related business
Manufacturer
SpaceX/Seattle
Mission
Operational Commercial Communications
Bus & Motor
STARLINK V2MD, Unknown motor
Mass
960 kg wet, ~910 kg dry
Launch date (UTC)
2025-02-27 (1 year ago)
Launch vehicle
FALCON 9
Launch site
Air Force Eastern Test Range (AFETR)
Object type
Payload
Rocket body
Debris
Shape & HBR
Box + 2 Pan, 18.1 m
Radar Cross Section
36.964 m², Large (>1 m²)

Expand to show TLE details & history
Last TLE update: 7 hours ago

TLE from 7 hours ago
0 STARLINK-11584
1 63106U 25039C   26150.98066448  .00103617  00000-0  80041-3 0  9998
2 63106  43.0004 101.1875 0001694 250.2963 109.7722 15.70856682 72554
Epoch: 2026-05-30T23:32Z
TLE epoch observation values (Epoch: 2026-05-30T23:32:09.411Z)
Latitude
Longitude
-140.34062°
Altitude
356.605 km
Speed
7.697 km/s
True Right ascension
06h 44m 45s
True Declination
0° 00' 00"
Sunlit
Object was in daylight at epoch
Visualization orbit readout
Latitude
Unknown
Longitude
Unknown
Altitude
Unknown
Speed
Unknown
Apparent Right ascension
Unknown
Apparent Declination
Unknown
Sunlit
N/A
Visualization observer readout
Local Sidereal Time
16:35:09
Azimuth
Unknown
Elevation
Unknown
Doppler factor
Unknown
Orbital elements
Apogee altitude
359.57 km
Perigee altitude
357.288 km
Semi-major axis
6,736.566 km
Eccentricity
0.00017
Inclination
43.0004°
RAAN
101.1875°
Arg. of periapsis
250.2963°
True anomaly
109.79047°
Mean anomaly
109.7722°
Eccentric anomaly
109.78133°
Mean motion
3.92541 °/min
Orbital period
91.71 mins
BSTAR
0.00080041
Loading maneuver chart data...
Computing Atmospheric mass density...
Loading historical data...
Loading historical data...
Loading historical data...
Loading historical data...
Loading historical data...
Loading historical data...
Loading historical data...

Documentation

Showing up to 5 results
|